Tracking 31023 objects as of 20-Jul-2025
HD Live streaming from Space Station
objects crossing your sky now

FENGYUN 1C DEB

Track FENGYUN 1C DEB now!
10-day predictions


NORAD ID: 32342
Int'l Code: 1999-025CYK
Perigee: 848.9 km
Apogee: 861.4 km
Inclination: 98.7 °
Period: 101.9 minutes
Semi major axis: 7226 km
RCS: 0.023 m2 (small)
Launch date: May 10, 1999
Source: People's Republic of China (PRC)
Launch site: Taiyaun Space Center, China (TSC)

Note: This is SATELLITE DEBRIS
Your satellite tracking list
Your tracking list is empty




NASA's NSSDC Master Catalog

Two Line Element Set (TLE):
1 32342U 99025CYK 25200.01353493  .00000073  00000-0  61419-4 0  9991
2 32342  98.6732 213.0896 0008626  48.1851 339.2220 14.13325098916451
Source of the keplerian elements: AFSPC